Weather Roundup
Issued by NWS

Home | Current Version | Previous Version | Text Only | Print | Product List | Glossary On
Versions: 1 2 3 4 5 6 7 8 9 10 11 12 13 14 15 16 17 18 19 20 21 22 23 24 25 26 27 28 29 30 31 32 33 34 35 36 37 38 39 40 41 42 43 44 45 46 47 48 49 50
662
NZUS93 KARX 242310
HRRWXR

CURRENT HOURLY OBSERVATIONS ACROSS
MUCH OF THE UPPER MISSISSIPPI VALLEY
NATIONAL WEATHER SERVICE LA CROSSE WI
600 PM CDT SAT SEP 24 2016


...SOUTHEAST MINNESOTA...


CITY           SKY/WX    TMP DP  RH WIND       PRES   REMARKS
ROCHESTER      CLOUDY    68  65  90 SE14      30.05R
ROCHESTER/MAYO   N/A     67  67  98 E12G17    30.05S
WINONA         CLOUDY    70  63  78 SE9       30.07R
AUSTIN         CLOUDY    72  64  78 SE9       30.01R
ALBERT LEA     MOSUNNY   77  66  69 SE9       29.98S
DODGE CENTER   CLOUDY    70  63  78 SE10G16   30.03S
PRESTON        CLOUDY    67  62  84 SE10      30.07R
OWATONNA       MOSUNNY   73  64  73 E13       29.99S
FARIBAULT      MOSUNNY   73  64  73 E13       30.00S
$$

...ELSEWHERE IN MINNESOTA...


CITY           SKY/WX    TMP DP  RH WIND       PRES   REMARKS
MINNEAPOLIS    CLOUDY    69  63  81 SE17      30.00S
INTNL FALLS    CLOUDY    65  59  81 SE15      29.99S
DULUTH         CLOUDY    62  59  90 E10       30.08R
RED WING       CLOUDY    70  63  78 SE14      30.03F
REDWOOD FALLS  TSTM      68  65  90 CALM      29.92F FOG
MANKATO        CLOUDY    78  67  68 SE12      29.95S
WORTHINGTON    CLOUDY    70  68  93 S6        29.91R
FAIRMONT       CLOUDY    79  68  69 SE13      29.93R
$$

...SOUTHWEST WISCONSIN...


CITY           SKY/WX    TMP DP  RH WIND       PRES   REMARKS
LA CROSSE      CLOUDY    70  63  78 SE12      30.07S
PRAIRIE DU CHI CLOUDY    72  64  78 E6        30.06S
BOSCOBEL       CLOUDY    72  64  76 E6        30.08F
LONE ROCK      CLOUDY    70  63  78 E8        30.10S
PLATTEVILLE    CLEAR     73  68  84 E9        30.09S
FORT MC COY    CLOUDY    66  61  86 E5        30.10S
CAMP DOUGLAS   MOCLDY    66  61  85 E8        30.11S
MAUSTON-NEW LI CLOUDY    67  61  82 SE5       30.11S
VIROQUA        CLOUDY    66  63  90 SE7       30.10R
WIS DELLS      PTCLDY    68  60  74 E6        30.12S
$$

...ELSEWHERE IN WISCONSIN...


CITY           SKY/WX    TMP DP  RH WIND       PRES   REMARKS
MILWAUKEE      CLOUDY    67  60  78 E8        30.15F
MADISON        CLEAR     69  61  75 E12       30.11F
GREEN BAY      CLEAR     65  53  65 E9        30.16F
EAU CLAIRE     CLOUDY    66  60  81 S14       30.08R
BLACK RVR FLS  CLOUDY    65  60  82 CALM      30.09S
MEDFORD        CLOUDY    64  56  76 SE7       30.13R
WAUSAU         CLEAR     66  53  63 SE13      30.13S
WIS RAPIDS     LGT RAIN  67  60  78 SE7       30.14S
MARSHFIELD     CLOUDY    66  57  72 SE8       30.12S
RICE LAKE      CLOUDY    66  59  79 SE13G18   30.10R
$$

...NORTHEAST IOWA...


CITY           SKY/WX    TMP DP  RH WIND       PRES   REMARKS
WATERLOO       SUNNY     79  66  64 SE13      29.99S
DUBUQUE        CLEAR     70  66  87 SE8       30.08F
DECORAH        CLOUDY    70  66  88 SE8G16    30.05S
MASON CITY     MOSUNNY   78  67  68 SE12      29.98
CHARLES CITY   SUNNY     75  68  78 SE12      30.02R
OELWEIN        SUNNY     73  66  78 SE16G22   30.04R
$$

...ELSEWHERE IN IOWA...


CITY           SKY/WX    TMP DP  RH WIND       PRES   REMARKS
DES MOINES     PTSUNNY   85  69  58 S12       29.95R
IOWA CITY      SUNNY     82  69  64 E9        30.02S
FORT DODGE     CLOUDY    77  64  65 W12G32    29.98R
MARSHALLTOWN   SUNNY     82  67  60 SE9       29.97S
CEDAR RAPIDS   SUNNY     79  70  74 E10       30.02S
$$

...NORTHERN ILLINOIS...


CITY           SKY/WX    TMP DP  RH WIND       PRES   REMARKS
CHICAGO-OHARE  PTCLDY    71  62  73 E9        30.13S
CHICAGO-MIDWAY PTCLDY    73  62  68 E10       30.12F
MOLINE         CLEAR     79  68  69 E14       30.03S
ROCKFORD       PTCLDY    73  64  73 E9        30.11F
PEORIA         CLEAR     83  70  64 NE6       30.04F
$$

NOTE: "FAIR" INDICATES FEW OR NO CLOUDS BELOW 12,000 FEET WITH NO
SIGNIFICANT WEATHER AND/OR OBSTRUCTIONS TO VISIBILITY. WIND
SPEEDS ARE IN MILES-PER-HOUR.




USA.gov is the U.S. government's official web portal to all federal, state and local government web resources and services.